TimeMDT,TemperatureF,Dew PointF,Humidity,Sea Level PressureIn,VisibilityMPH,Wind Direction,Wind SpeedMPH,Gust SpeedMPH,PrecipitationIn,Events,Conditions,WindDirDegrees,DateUTC
12:53 AM,28.0,6.1,39,30.14,10.0,SW,17.3,-,N/A,,Clear,220,2014-03-13 06:53:00
1:53 AM,28.0,9.0,45,30.11,10.0,SW,17.3,-,N/A,,Clear,230,2014-03-13 07:53:00
2:53 AM,30.9,6.1,35,30.05,10.0,SW,20.7,-,N/A,,Clear,230,2014-03-13 08:53:00
3:53 AM,28.0,9.0,45,30.04,10.0,SW,19.6,-,N/A,,Clear,230,2014-03-13 09:53:00
4:53 AM,30.0,7.0,38,30.03,10.0,SW,23.0,-,N/A,,Clear,220,2014-03-13 10:53:00
5:53 AM,30.9,6.1,35,30.02,10.0,WSW,19.6,-,N/A,,Clear,240,2014-03-13 11:53:00
6:53 AM,28.9,7.0,40,30.04,10.0,SW,17.3,-,N/A,,Clear,230,2014-03-13 12:53:00
7:53 AM,30.0,8.1,40,30.06,10.0,SW,25.3,33.4,N/A,,Clear,220,2014-03-13 13:53:00
8:53 AM,34.0,9.0,35,30.05,10.0,SW,11.5,23.0,N/A,,Unknown,220,2014-03-13 14:53:00
9:53 AM,39.0,10.0,30,29.99,10.0,SW,21.9,26.5,N/A,,Clear,220,2014-03-13 15:53:00
10:53 AM,42.1,10.0,27,29.93,10.0,SW,20.7,-,N/A,,Clear,220,2014-03-13 16:53:00
11:53 AM,44.1,12.0,27,29.88,10.0,WSW,27.6,35.7,N/A,,Clear,250,2014-03-13 17:53:00
12:53 PM,45.0,12.0,26,29.86,10.0,WSW,24.2,29.9,N/A,,Clear,250,2014-03-13 18:53:00
1:53 PM,46.0,10.9,24,29.82,10.0,West,26.5,35.7,N/A,,Clear,260,2014-03-13 19:53:00
2:53 PM,46.0,10.9,24,29.79,10.0,West,29.9,39.1,N/A,,Clear,270,2014-03-13 20:53:00
3:53 PM,46.0,9.0,22,29.80,10.0,West,26.5,33.4,N/A,,Clear,270,2014-03-13 21:53:00
4:53 PM,42.1,10.9,28,29.81,10.0,West,16.1,-,N/A,,Clear,280,2014-03-13 22:53:00
5:53 PM,41.0,12.9,32,29.82,10.0,West,13.8,-,N/A,,Clear,260,2014-03-13 23:53:00
6:53 PM,39.0,12.9,34,29.85,10.0,West,16.1,-,N/A,,Clear,280,2014-03-14 00:53:00
7:53 PM,37.0,14.0,39,29.87,10.0,West,16.1,-,N/A,,Clear,280,2014-03-14 01:53:00
8:53 PM,37.0,12.0,36,29.86,10.0,WNW,11.5,-,N/A,,Clear,300,2014-03-14 02:53:00
9:53 PM,32.0,16.0,52,29.88,10.0,NW,13.8,-,N/A,,Clear,320,2014-03-14 03:53:00
10:53 PM,33.1,17.1,52,29.87,10.0,WNW,16.1,-,N/A,,Clear,300,2014-03-14 04:53:00
11:53 PM,28.0,18.0,66,29.91,10.0,NW,11.5,-,N/A,,Clear,310,2014-03-14 05:53:00